owner,sensor,date,latitude,longitude,vertical_datum,wind_speed,wind_to_direction,wind_speed_of_gust,qcFlag 
TCOON,ioos:station:TCOON:518:1,2008-06-01T00:00:00Z,29.5150,-94.5133,0.0,4.4,152.0,99.0,'11111222,11111222,11144222' 
TCOON,ioos:station:TCOON:518:1,2008-06-01T01:00:00Z,29.5150,-94.5133,0.0,4.1,164.0,99.0,'11111222,11111222,11144222' 
TCOON,ioos:station:TCOON:518:1,2008-06-01T02:00:00Z,29.5150,-94.5133,0.0,4.7,157.0,99.0,'11111222,11111222,11144222' 
TCOON,ioos:station:TCOON:518:1,2008-06-01T03:00:00Z,29.5150,-94.5133,0.0,4.8,151.0,99.0,'11111222,11111222,11144222' 
TCOON,ioos:station:TCOON:518:1,2008-06-01T04:00:00Z,29.5150,-94.5133,0.0,4.7,154.0,99.0,'11111222,11111222,11144222' 
TCOON,ioos:station:TCOON:518:1,2008-06-01T05:00:00Z,29.5150,-94.5133,0.0,3.5,164.0,99.0,'11111222,11111222,11144222' 
TCOON,ioos:station:TCOON:518:1,2008-06-01T06:00:00Z,29.5150,-94.5133,0.0,3.7,168.0,99.0,'11111222,11111222,11144222' 
TCOON,ioos:station:TCOON:518:1,2008-06-01T07:00:00Z,29.5150,-94.5133,0.0,4.5,180.0,99.0,'11111222,11111222,11144222' 
TCOON,ioos:station:TCOON:518:1,2008-06-01T08:00:00Z,29.5150,-94.5133,0.0,4.2,184.0,99.0,'11111222,11111222,11144222' 
TCOON,ioos:station:TCOON:518:1,2008-06-01T09:00:00Z,29.5150,-94.5133,0.0,4.5,180.0,99.0,'11111222,11111222,11144222' 
TCOON,ioos:station:TCOON:518:1,2008-06-01T10:00:00Z,29.5150,-94.5133,0.0,3.0,183.0,99.0,'11111222,11111222,11144222' 
TCOON,ioos:station:TCOON:518:1,2008-06-01T11:00:00Z,29.5150,-94.5133,0.0,3.9,175.0,99.0,'11111222,11111222,11144222' 
TCOON,ioos:station:TCOON:518:1,2008-06-01T12:00:00Z,29.5150,-94.5133,0.0,3.3,178.0,99.0,'11111222,11111222,11144222' 
TCOON,ioos:station:TCOON:518:1,2008-06-01T13:00:00Z,29.5150,-94.5133,0.0,4.0,174.0,99.0,'11111222,11111222,11144222' 
TCOON,ioos:station:TCOON:518:1,2008-06-01T14:00:00Z,29.5150,-94.5133,0.0,3.8,162.0,99.0,'11111222,11111222,11144222' 
TCOON,ioos:station:TCOON:518:1,2008-06-01T15:00:00Z,29.5150,-94.5133,0.0,4.7,158.0,99.0,'11111222,11111222,11144222' 
TCOON,ioos:station:TCOON:518:1,2008-06-01T16:00:00Z,29.5150,-94.5133,0.0,5.0,156.0,99.0,'11111222,11111222,11144222' 
TCOON,ioos:station:TCOON:518:1,2008-06-01T17:00:00Z,29.5150,-94.5133,0.0,4.3,149.0,99.0,'11111222,11111222,11144222' 
TCOON,ioos:station:TCOON:518:1,2008-06-01T18:00:00Z,29.5150,-94.5133,0.0,4.1,153.0,99.0,'11111222,11111222,11144222' 
TCOON,ioos:station:TCOON:518:1,2008-06-01T19:00:00Z,29.5150,-94.5133,0.0,5.0,146.0,99.0,'11111222,11111222,11144222' 
TCOON,ioos:station:TCOON:518:1,2008-06-01T20:00:00Z,29.5150,-94.5133,0.0,3.4,162.0,99.0,'11111222,11111222,11144222' 
TCOON,ioos:station:TCOON:518:1,2008-06-01T21:00:00Z,29.5150,-94.5133,0.0,4.9,154.0,99.0,'11111222,11111222,11144222' 
TCOON,ioos:station:TCOON:518:1,2008-06-01T22:00:00Z,29.5150,-94.5133,0.0,3.8,155.0,99.0,'11111222,11111222,11144222' 
TCOON,ioos:station:TCOON:518:1,2008-06-01T23:00:00Z,29.5150,-94.5133,0.0,4.0,154.0,99.0,'11111222,11111222,11144222' 
TCOON,ioos:station:TCOON:518:1,2008-06-02T00:00:00Z,29.5150,-94.5133,0.0,4.5,158.0,99.0,'11111222,11111222,11144222' 
TCOON,ioos:station:TCOON:518:1,2008-06-02T01:00:00Z,29.5150,-94.5133,0.0,3.8,159.0,99.0,'11111222,11111222,11144222' 
TCOON,ioos:station:TCOON:518:1,2008-06-02T02:00:00Z,29.5150,-94.5133,0.0,5.1,152.0,99.0,'11111222,11111222,11144222' 
TCOON,ioos:station:TCOON:518:1,2008-06-02T03:00:00Z,29.5150,-94.5133,0.0,2.8,168.0,99.0,'11111222,11111222,11144222' 
TCOON,ioos:station:TCOON:518:1,2008-06-02T04:00:00Z,29.5150,-94.5133,0.0,3.7,155.0,99.0,'11111222,11111222,11144222' 
TCOON,ioos:station:TCOON:518:1,2008-06-02T05:00:00Z,29.5150,-94.5133,0.0,5.4,150.0,99.0,'11111222,11111222,11144222' 
TCOON,ioos:station:TCOON:518:1,2008-06-02T06:00:00Z,29.5150,-94.5133,0.0,4.5,162.0,99.0,'11111222,11111222,11144222' 
TCOON,ioos:station:TCOON:518:1,2008-06-02T07:00:00Z,29.5150,-94.5133,0.0,4.6,162.0,99.0,'11111222,11111222,11144222' 
TCOON,ioos:station:TCOON:518:1,2008-06-02T08:00:00Z,29.5150,-94.5133,0.0,6.1,158.0,99.0,'11111222,11111222,11144222' 
TCOON,ioos:station:TCOON:518:1,2008-06-02T09:00:00Z,29.5150,-94.5133,0.0,4.5,160.0,99.0,'11111222,11111222,11144222' 
TCOON,ioos:station:TCOON:518:1,2008-06-02T10:00:00Z,29.5150,-94.5133,0.0,3.9,173.0,99.0,'11111222,11111222,11144222' 
TCOON,ioos:station:TCOON:518:1,2008-06-02T11:00:00Z,29.5150,-94.5133,0.0,3.1,166.0,99.0,'11111222,11111222,11144222' 
TCOON,ioos:station:TCOON:518:1,2008-06-02T12:00:00Z,29.5150,-94.5133,0.0,4.9,173.0,99.0,'11111222,11111222,11144222' 
TCOON,ioos:station:TCOON:518:1,2008-06-02T13:00:00Z,29.5150,-94.5133,0.0,3.5,163.0,99.0,'11111222,11111222,11144222' 
TCOON,ioos:station:TCOON:518:1,2008-06-02T14:00:00Z,29.5150,-94.5133,0.0,3.4,176.0,99.0,'11111222,11111222,11144222' 
TCOON,ioos:station:TCOON:518:1,2008-06-02T15:00:00Z,29.5150,-94.5133,0.0,3.2,172.0,99.0,'11111222,11111222,11144222' 
TCOON,ioos:station:TCOON:518:1,2008-06-02T16:00:00Z,29.5150,-94.5133,0.0,4.3,179.0,99.0,'11111222,11111222,11144222' 
TCOON,ioos:station:TCOON:518:1,2008-06-02T17:00:00Z,29.5150,-94.5133,0.0,3.8,182.0,99.0,'11111222,11111222,11144222' 
TCOON,ioos:station:TCOON:518:1,2008-06-02T18:00:00Z,29.5150,-94.5133,0.0,4.3,186.0,99.0,'11111222,11111222,11144222' 
TCOON,ioos:station:TCOON:518:1,2008-06-02T19:00:00Z,29.5150,-94.5133,0.0,5.3,177.0,99.0,'11111222,11111222,11144222' 
TCOON,ioos:station:TCOON:518:1,2008-06-02T20:00:00Z,29.5150,-94.5133,0.0,4.4,169.0,99.0,'11111222,11111222,11144222' 
TCOON,ioos:station:TCOON:518:1,2008-06-02T21:00:00Z,29.5150,-94.5133,0.0,4.1,168.0,99.0,'11111222,11111222,11144222' 
TCOON,ioos:station:TCOON:518:1,2008-06-02T22:00:00Z,29.5150,-94.5133,0.0,4.6,162.0,99.0,'11111222,11111222,11144222' 
TCOON,ioos:station:TCOON:518:1,2008-06-02T23:00:00Z,29.5150,-94.5133,0.0,4.4,161.0,99.0,'11111222,11111222,11144222' 
TCOON,ioos:station:TCOON:518:1,2008-06-03T00:00:00Z,29.5150,-94.5133,0.0,5.4,158.0,99.0,'11111222,11111222,11144222' 
TCOON,ioos:station:TCOON:518:1,2008-06-03T01:00:00Z,29.5150,-94.5133,0.0,4.3,171.0,99.0,'11111222,11111222,11144222' 
TCOON,ioos:station:TCOON:518:1,2008-06-03T02:00:00Z,29.5150,-94.5133,0.0,4.4,171.0,99.0,'11111222,11111222,11144222' 
TCOON,ioos:station:TCOON:518:1,2008-06-03T03:00:00Z,29.5150,-94.5133,0.0,4.3,162.0,99.0,'11111222,11111222,11144222' 
TCOON,ioos:station:TCOON:518:1,2008-06-03T04:00:00Z,29.5150,-94.5133,0.0,3.7,169.0,99.0,'11111222,11111222,11144222' 
TCOON,ioos:station:TCOON:518:1,2008-06-03T05:00:00Z,29.5150,-94.5133,0.0,4.4,164.0,99.0,'11111222,11111222,11144222' 
TCOON,ioos:station:TCOON:518:1,2008-06-03T06:00:00Z,29.5150,-94.5133,0.0,3.6,164.0,99.0,'11111222,11111222,11144222' 
TCOON,ioos:station:TCOON:518:1,2008-06-03T07:00:00Z,29.5150,-94.5133,0.0,5.2,159.0,99.0,'11111222,11111222,11144222' 
TCOON,ioos:station:TCOON:518:1,2008-06-03T08:00:00Z,29.5150,-94.5133,0.0,4.8,164.0,99.0,'11111222,11111222,11144222' 
TCOON,ioos:station:TCOON:518:1,2008-06-03T09:00:00Z,29.5150,-94.5133,0.0,6.3,175.0,99.0,'11111222,11111222,11144222' 
TCOON,ioos:station:TCOON:518:1,2008-06-03T10:00:00Z,29.5150,-94.5133,0.0,6.3,178.0,99.0,'11111222,11111222,11144222' 
TCOON,ioos:station:TCOON:518:1,2008-06-03T11:00:00Z,29.5150,-94.5133,0.0,5.1,179.0,99.0,'11111222,11111222,11144222' 
TCOON,ioos:station:TCOON:518:1,2008-06-03T12:00:00Z,29.5150,-94.5133,0.0,4.8,188.0,99.0,'11111222,11111222,11144222' 
TCOON,ioos:station:TCOON:518:1,2008-06-03T13:00:00Z,29.5150,-94.5133,0.0,5.8,180.0,99.0,'11111222,11111222,11144222' 
TCOON,ioos:station:TCOON:518:1,2008-06-03T14:00:00Z,29.5150,-94.5133,0.0,3.5,197.0,99.0,'11111222,11111222,11144222' 
TCOON,ioos:station:TCOON:518:1,2008-06-03T15:00:00Z,29.5150,-94.5133,0.0,6.0,197.0,99.0,'11111222,11111222,11144222' 
TCOON,ioos:station:TCOON:518:1,2008-06-03T16:00:00Z,29.5150,-94.5133,0.0,4.9,187.0,99.0,'11111222,11111222,11144222' 
TCOON,ioos:station:TCOON:518:1,2008-06-03T17:00:00Z,29.5150,-94.5133,0.0,4.6,189.0,99.0,'11111222,11111222,11144222' 
TCOON,ioos:station:TCOON:518:1,2008-06-03T18:00:00Z,29.5150,-94.5133,0.0,2.9,201.0,99.0,'11111222,11111222,11144222' 
TCOON,ioos:station:TCOON:518:1,2008-06-03T19:00:00Z,29.5150,-94.5133,0.0,5.4,185.0,99.0,'11111222,11111222,11144222' 
TCOON,ioos:station:TCOON:518:1,2008-06-03T20:00:00Z,29.5150,-94.5133,0.0,5.0,191.0,99.0,'11111222,11111222,11144222' 
TCOON,ioos:station:TCOON:518:1,2008-06-03T21:00:00Z,29.5150,-94.5133,0.0,6.1,179.0,99.0,'11111222,11111222,11144222' 
TCOON,ioos:station:TCOON:518:1,2008-06-03T22:00:00Z,29.5150,-94.5133,0.0,5.4,176.0,99.0,'11111222,11111222,11144222' 
TCOON,ioos:station:TCOON:518:1,2008-06-03T23:00:00Z,29.5150,-94.5133,0.0,6.0,176.0,99.0,'11111222,11111222,11144222' 
TCOON,ioos:station:TCOON:518:1,2008-06-04T00:00:00Z,29.5150,-94.5133,0.0,4.6,168.0,99.0,'11111222,11111222,11144222' 
TCOON,ioos:station:TCOON:518:1,2008-06-04T01:00:00Z,29.5150,-94.5133,0.0,4.7,163.0,99.0,'11111222,11111222,11144222' 
TCOON,ioos:station:TCOON:518:1,2008-06-04T02:00:00Z,29.5150,-94.5133,0.0,5.9,159.0,99.0,'11111222,11111222,11144222' 
TCOON,ioos:station:TCOON:518:1,2008-06-04T03:00:00Z,29.5150,-94.5133,0.0,5.0,167.0,99.0,'11111222,11111222,11144222' 
TCOON,ioos:station:TCOON:518:1,2008-06-04T04:00:00Z,29.5150,-94.5133,0.0,5.5,162.0,99.0,'11111222,11111222,11144222' 
TCOON,ioos:station:TCOON:518:1,2008-06-04T05:00:00Z,29.5150,-94.5133,0.0,5.1,167.0,99.0,'11111222,11111222,11144222' 
TCOON,ioos:station:TCOON:518:1,2008-06-04T06:00:00Z,29.5150,-94.5133,0.0,7.0,162.0,99.0,'11111222,11111222,11144222' 
TCOON,ioos:station:TCOON:518:1,2008-06-04T07:00:00Z,29.5150,-94.5133,0.0,6.2,168.0,99.0,'11111222,11111222,11144222' 
TCOON,ioos:station:TCOON:518:1,2008-06-04T08:00:00Z,29.5150,-94.5133,0.0,5.9,164.0,99.0,'11111222,11111222,11144222' 
TCOON,ioos:station:TCOON:518:1,2008-06-04T09:00:00Z,29.5150,-94.5133,0.0,6.4,170.0,99.0,'11111222,11111222,11144222' 
TCOON,ioos:station:TCOON:518:1,2008-06-04T10:00:00Z,29.5150,-94.5133,0.0,6.4,167.0,99.0,'11111222,11111222,11144222' 
TCOON,ioos:station:TCOON:518:1,2008-06-04T11:00:00Z,29.5150,-94.5133,0.0,7.2,179.0,99.0,'11111222,11111222,11144222' 
TCOON,ioos:station:TCOON:518:1,2008-06-04T12:00:00Z,29.5150,-94.5133,0.0,7.4,184.0,99.0,'11111222,11111222,11144222' 
TCOON,ioos:station:TCOON:518:1,2008-06-04T13:00:00Z,29.5150,-94.5133,0.0,7.9,174.0,99.0,'11111222,11111222,11144222' 
TCOON,ioos:station:TCOON:518:1,2008-06-04T14:00:00Z,29.5150,-94.5133,0.0,6.7,185.0,99.0,'11111222,11111222,11144222' 
TCOON,ioos:station:TCOON:518:1,2008-06-04T15:00:00Z,29.5150,-94.5133,0.0,6.4,178.0,99.0,'11111222,11111222,11144222' 
TCOON,ioos:station:TCOON:518:1,2008-06-04T16:00:00Z,29.5150,-94.5133,0.0,6.3,173.0,99.0,'11111222,11111222,11144222' 
TCOON,ioos:station:TCOON:518:1,2008-06-04T17:00:00Z,29.5150,-94.5133,0.0,7.3,174.0,99.0,'11111222,11111222,11144222' 
TCOON,ioos:station:TCOON:518:1,2008-06-04T18:00:00Z,29.5150,-94.5133,0.0,6.3,170.0,99.0,'11111222,11111222,11144222' 
TCOON,ioos:station:TCOON:518:1,2008-06-04T19:00:00Z,29.5150,-94.5133,0.0,6.4,170.0,99.0,'11111222,11111222,11144222' 
TCOON,ioos:station:TCOON:518:1,2008-06-04T20:00:00Z,29.5150,-94.5133,0.0,6.9,161.0,99.0,'11111222,11111222,11144222' 
TCOON,ioos:station:TCOON:518:1,2008-06-04T21:00:00Z,29.5150,-94.5133,0.0,7.4,155.0,99.0,'11111222,11111222,11144222' 
TCOON,ioos:station:TCOON:518:1,2008-06-04T22:00:00Z,29.5150,-94.5133,0.0,5.3,163.0,99.0,'11111222,11111222,11144222' 
TCOON,ioos:station:TCOON:518:1,2008-06-04T23:00:00Z,29.5150,-94.5133,0.0,6.4,158.0,99.0,'11111222,11111222,11144222' 
TCOON,ioos:station:TCOON:518:1,2008-06-05T00:00:00Z,29.5150,-94.5133,0.0,6.2,152.0,99.0,'11111222,11111222,11144222' 
TCOON,ioos:station:TCOON:518:1,2008-06-05T01:00:00Z,29.5150,-94.5133,0.0,7.1,153.0,99.0,'11111222,11111222,11144222' 
TCOON,ioos:station:TCOON:518:1,2008-06-05T02:00:00Z,29.5150,-94.5133,0.0,7.7,155.0,99.0,'11111222,11111222,11144222' 
TCOON,ioos:station:TCOON:518:1,2008-06-05T03:00:00Z,29.5150,-94.5133,0.0,8.0,153.0,99.0,'11111222,11111222,11144222' 
TCOON,ioos:station:TCOON:518:1,2008-06-05T04:00:00Z,29.5150,-94.5133,0.0,8.2,159.0,99.0,'11111222,11111222,11144222' 
TCOON,ioos:station:TCOON:518:1,2008-06-05T05:00:00Z,29.5150,-94.5133,0.0,8.2,161.0,99.0,'11111222,11111222,11144222' 
TCOON,ioos:station:TCOON:518:1,2008-06-05T06:00:00Z,29.5150,-94.5133,0.0,8.8,157.0,99.0,'11111222,11111222,11144222' 
TCOON,ioos:station:TCOON:518:1,2008-06-05T07:00:00Z,29.5150,-94.5133,0.0,8.9,156.0,99.0,'11111222,11111222,11144222' 
TCOON,ioos:station:TCOON:518:1,2008-06-05T08:00:00Z,29.5150,-94.5133,0.0,8.5,160.0,99.0,'11111222,11111222,11144222' 
TCOON,ioos:station:TCOON:518:1,2008-06-05T09:00:00Z,29.5150,-94.5133,0.0,8.3,160.0,99.0,'11111222,11111222,11144222' 
TCOON,ioos:station:TCOON:518:1,2008-06-05T10:00:00Z,29.5150,-94.5133,0.0,6.6,167.0,99.0,'11111222,11111222,11144222' 
TCOON,ioos:station:TCOON:518:1,2008-06-05T11:00:00Z,29.5150,-94.5133,0.0,7.3,161.0,99.0,'11111222,11111222,11144222' 
TCOON,ioos:station:TCOON:518:1,2008-06-05T12:00:00Z,29.5150,-94.5133,0.0,9.2,159.0,99.0,'11111222,11111222,11144222' 
TCOON,ioos:station:TCOON:518:1,2008-06-05T13:00:00Z,29.5150,-94.5133,0.0,11.0,157.0,99.0,'11111222,11111222,11144222' 
TCOON,ioos:station:TCOON:518:1,2008-06-05T14:00:00Z,29.5150,-94.5133,0.0,10.0,153.0,99.0,'11111222,11111222,11144222' 
TCOON,ioos:station:TCOON:518:1,2008-06-05T15:00:00Z,29.5150,-94.5133,0.0,8.0,156.0,99.0,'11111222,11111222,11144222' 
TCOON,ioos:station:TCOON:518:1,2008-06-05T16:00:00Z,29.5150,-94.5133,0.0,8.9,151.0,99.0,'11111222,11111222,11144222' 
TCOON,ioos:station:TCOON:518:1,2008-06-05T17:00:00Z,29.5150,-94.5133,0.0,7.8,152.0,99.0,'11111222,11111222,11144222' 
TCOON,ioos:station:TCOON:518:1,2008-06-05T18:00:00Z,29.5150,-94.5133,0.0,8.1,149.0,99.0,'11111222,11111222,11144222' 
TCOON,ioos:station:TCOON:518:1,2008-06-05T19:00:00Z,29.5150,-94.5133,0.0,10.1,138.0,99.0,'11111222,11111222,11144222' 
TCOON,ioos:station:TCOON:518:1,2008-06-05T20:00:00Z,29.5150,-94.5133,0.0,9.5,143.0,99.0,'11111222,11111222,11144222' 
TCOON,ioos:station:TCOON:518:1,2008-06-05T21:00:00Z,29.5150,-94.5133,0.0,9.0,147.0,99.0,'11111222,11111222,11144222' 
TCOON,ioos:station:TCOON:518:1,2008-06-05T22:00:00Z,29.5150,-94.5133,0.0,9.2,145.0,99.0,'11111222,11111222,11144222' 
TCOON,ioos:station:TCOON:518:1,2008-06-05T23:00:00Z,29.5150,-94.5133,0.0,9.1,141.0,99.0,'11111222,11111222,11144222' 
TCOON,ioos:station:TCOON:518:1,2008-06-06T00:00:00Z,29.5150,-94.5133,0.0,8.2,144.0,99.0,'11111222,11111222,11144222' 
TCOON,ioos:station:TCOON:518:1,2008-06-06T01:00:00Z,29.5150,-94.5133,0.0,10.5,139.0,99.0,'11111222,11111222,11144222' 
TCOON,ioos:station:TCOON:518:1,2008-06-06T02:00:00Z,29.5150,-94.5133,0.0,9.6,144.0,99.0,'11111222,11111222,11144222' 
TCOON,ioos:station:TCOON:518:1,2008-06-06T03:00:00Z,29.5150,-94.5133,0.0,10.8,147.0,99.0,'11111222,11111222,11144222' 
TCOON,ioos:station:TCOON:518:1,2008-06-06T04:00:00Z,29.5150,-94.5133,0.0,11.6,142.0,99.0,'11111222,11111222,11144222' 
TCOON,ioos:station:TCOON:518:1,2008-06-06T05:00:00Z,29.5150,-94.5133,0.0,10.9,150.0,99.0,'11111222,11111222,11144222' 
TCOON,ioos:station:TCOON:518:1,2008-06-06T06:00:00Z,29.5150,-94.5133,0.0,9.0,156.0,99.0,'11111222,11111222,11144222' 
TCOON,ioos:station:TCOON:518:1,2008-06-06T07:00:00Z,29.5150,-94.5133,0.0,8.9,160.0,99.0,'11111222,11111222,11144222' 
TCOON,ioos:station:TCOON:518:1,2008-06-06T08:00:00Z,29.5150,-94.5133,0.0,6.5,164.0,99.0,'11111222,11111222,11144222' 
TCOON,ioos:station:TCOON:518:1,2008-06-06T09:00:00Z,29.5150,-94.5133,0.0,7.2,158.0,99.0,'11111222,11111222,11144222' 
TCOON,ioos:station:TCOON:518:1,2008-06-06T10:00:00Z,29.5150,-94.5133,0.0,7.0,159.0,99.0,'11111222,11111222,11144222' 
TCOON,ioos:station:TCOON:518:1,2008-06-06T11:00:00Z,29.5150,-94.5133,0.0,10.6,145.0,99.0,'11111222,11111222,11144222' 
TCOON,ioos:station:TCOON:518:1,2008-06-06T12:00:00Z,29.5150,-94.5133,0.0,7.2,153.0,99.0,'11111222,11111222,11144222' 
TCOON,ioos:station:TCOON:518:1,2008-06-06T13:00:00Z,29.5150,-94.5133,0.0,7.9,150.0,99.0,'11111222,11111222,11144222' 
TCOON,ioos:station:TCOON:518:1,2008-06-06T14:00:00Z,29.5150,-94.5133,0.0,8.2,146.0,99.0,'11111222,11111222,11144222' 
TCOON,ioos:station:TCOON:518:1,2008-06-06T15:00:00Z,29.5150,-94.5133,0.0,10.2,139.0,99.0,'11111222,11111222,11144222' 
TCOON,ioos:station:TCOON:518:1,2008-06-06T16:00:00Z,29.5150,-94.5133,0.0,9.9,138.0,99.0,'11111222,11111222,11144222' 
TCOON,ioos:station:TCOON:518:1,2008-06-06T17:00:00Z,29.5150,-94.5133,0.0,8.5,142.0,99.0,'11111222,11111222,11144222' 
TCOON,ioos:station:TCOON:518:1,2008-06-06T18:00:00Z,29.5150,-94.5133,0.0,8.1,138.0,99.0,'11111222,11111222,11144222' 
TCOON,ioos:station:TCOON:518:1,2008-06-06T19:00:00Z,29.5150,-94.5133,0.0,8.8,140.0,99.0,'11111222,11111222,11144222' 
TCOON,ioos:station:TCOON:518:1,2008-06-06T20:00:00Z,29.5150,-94.5133,0.0,7.9,142.0,99.0,'11111222,11111222,11144222' 
TCOON,ioos:station:TCOON:518:1,2008-06-06T21:00:00Z,29.5150,-94.5133,0.0,7.6,147.0,99.0,'11111222,11111222,11144222' 
TCOON,ioos:station:TCOON:518:1,2008-06-06T22:00:00Z,29.5150,-94.5133,0.0,7.8,134.0,99.0,'11111222,11111222,11144222' 
TCOON,ioos:station:TCOON:518:1,2008-06-06T23:00:00Z,29.5150,-94.5133,0.0,8.7,140.0,99.0,'11111222,11111222,11144222' 
TCOON,ioos:station:TCOON:518:1,2008-06-07T00:00:00Z,29.5150,-94.5133,0.0,8.4,132.0,99.0,'11111222,11111222,11144222' 
TCOON,ioos:station:TCOON:518:1,2008-06-07T01:00:00Z,29.5150,-94.5133,0.0,6.7,139.0,99.0,'11111222,11111222,11144222' 
TCOON,ioos:station:TCOON:518:1,2008-06-07T02:00:00Z,29.5150,-94.5133,0.0,7.7,134.0,99.0,'11111222,11111222,11144222' 
TCOON,ioos:station:TCOON:518:1,2008-06-07T03:00:00Z,29.5150,-94.5133,0.0,8.3,135.0,99.0,'11111222,11111222,11144222' 
TCOON,ioos:station:TCOON:518:1,2008-06-07T04:00:00Z,29.5150,-94.5133,0.0,7.4,141.0,99.0,'11111222,11111222,11144222' 
TCOON,ioos:station:TCOON:518:1,2008-06-07T05:00:00Z,29.5150,-94.5133,0.0,9.3,136.0,99.0,'11111222,11111222,11144222' 
TCOON,ioos:station:TCOON:518:1,2008-06-07T06:00:00Z,29.5150,-94.5133,0.0,6.7,133.0,99.0,'11111222,11111222,11144222' 
TCOON,ioos:station:TCOON:518:1,2008-06-07T07:00:00Z,29.5150,-94.5133,0.0,7.0,141.0,99.0,'11111222,11111222,11144222' 
TCOON,ioos:station:TCOON:518:1,2008-06-07T08:00:00Z,29.5150,-94.5133,0.0,9.1,140.0,99.0,'11111222,11111222,11144222' 
TCOON,ioos:station:TCOON:518:1,2008-06-07T09:00:00Z,29.5150,-94.5133,0.0,8.9,135.0,99.0,'11111222,11111222,11144222' 
TCOON,ioos:station:TCOON:518:1,2008-06-07T10:00:00Z,29.5150,-94.5133,0.0,9.1,136.0,99.0,'11111222,11111222,11144222' 
TCOON,ioos:station:TCOON:518:1,2008-06-07T11:00:00Z,29.5150,-94.5133,0.0,8.9,139.0,99.0,'11111222,11111222,11144222' 
TCOON,ioos:station:TCOON:518:1,2008-06-07T12:00:00Z,29.5150,-94.5133,0.0,7.0,143.0,99.0,'11111222,11111222,11144222' 
TCOON,ioos:station:TCOON:518:1,2008-06-07T13:00:00Z,29.5150,-94.5133,0.0,7.8,139.0,99.0,'11111222,11111222,11144222' 
TCOON,ioos:station:TCOON:518:1,2008-06-07T14:00:00Z,29.5150,-94.5133,0.0,7.8,142.0,99.0,'11111222,11111222,11144222' 
TCOON,ioos:station:TCOON:518:1,2008-06-07T15:00:00Z,29.5150,-94.5133,0.0,8.2,140.0,99.0,'11111222,11111222,11144222' 
TCOON,ioos:station:TCOON:518:1,2008-06-07T16:00:00Z,29.5150,-94.5133,0.0,7.9,137.0,99.0,'11111222,11111222,11144222' 
TCOON,ioos:station:TCOON:518:1,2008-06-07T17:00:00Z,29.5150,-94.5133,0.0,8.4,142.0,99.0,'11111222,11111222,11144222' 
TCOON,ioos:station:TCOON:518:1,2008-06-07T18:00:00Z,29.5150,-94.5133,0.0,7.7,130.0,99.0,'11111222,11111222,11144222' 
TCOON,ioos:station:TCOON:518:1,2008-06-07T19:00:00Z,29.5150,-94.5133,0.0,7.0,132.0,99.0,'11111222,11111222,11144222' 
TCOON,ioos:station:TCOON:518:1,2008-06-07T20:00:00Z,29.5150,-94.5133,0.0,7.2,132.0,99.0,'11111222,11111222,11144222' 
TCOON,ioos:station:TCOON:518:1,2008-06-07T21:00:00Z,29.5150,-94.5133,0.0,7.0,140.0,99.0,'11111222,11111222,11144222' 
TCOON,ioos:station:TCOON:518:1,2008-06-07T22:00:00Z,29.5150,-94.5133,0.0,6.9,138.0,99.0,'11111222,11111222,11144222' 
TCOON,ioos:station:TCOON:518:1,2008-06-07T23:00:00Z,29.5150,-94.5133,0.0,7.0,128.0,99.0,'11111222,11111222,11144222' 
TCOON,ioos:station:TCOON:518:1,2008-06-08T00:00:00Z,29.5150,-94.5133,0.0,6.3,139.0,99.0,'11111222,11111222,11144222' 
TCOON,ioos:station:TCOON:518:1,2008-06-08T01:00:00Z,29.5150,-94.5133,0.0,6.9,139.0,99.0,'11111222,11111222,11144222' 
TCOON,ioos:station:TCOON:518:1,2008-06-08T02:00:00Z,29.5150,-94.5133,0.0,6.9,138.0,99.0,'11111222,11111222,11144222' 
TCOON,ioos:station:TCOON:518:1,2008-06-08T03:00:00Z,29.5150,-94.5133,0.0,7.8,134.0,99.0,'11111222,11111222,11144222' 
TCOON,ioos:station:TCOON:518:1,2008-06-08T04:00:00Z,29.5150,-94.5133,0.0,8.2,137.0,99.0,'11111222,11111222,11144222' 
TCOON,ioos:station:TCOON:518:1,2008-06-08T05:00:00Z,29.5150,-94.5133,0.0,8.2,143.0,99.0,'11111222,11111222,11144222' 
TCOON,ioos:station:TCOON:518:1,2008-06-08T06:00:00Z,29.5150,-94.5133,0.0,6.8,144.0,99.0,'11111222,11111222,11144222' 
TCOON,ioos:station:TCOON:518:1,2008-06-08T07:00:00Z,29.5150,-94.5133,0.0,6.0,148.0,99.0,'11111222,11111222,11144222' 
TCOON,ioos:station:TCOON:518:1,2008-06-08T08:00:00Z,29.5150,-94.5133,0.0,7.3,146.0,99.0,'11111222,11111222,11144222' 
TCOON,ioos:station:TCOON:518:1,2008-06-08T09:00:00Z,29.5150,-94.5133,0.0,6.6,150.0,99.0,'11111222,11111222,11144222' 
TCOON,ioos:station:TCOON:518:1,2008-06-08T10:00:00Z,29.5150,-94.5133,0.0,5.2,149.0,99.0,'11111222,11111222,11144222' 
TCOON,ioos:station:TCOON:518:1,2008-06-08T11:00:00Z,29.5150,-94.5133,0.0,6.0,154.0,99.0,'11111222,11111222,11144222' 
TCOON,ioos:station:TCOON:518:1,2008-06-08T12:00:00Z,29.5150,-94.5133,0.0,5.9,157.0,99.0,'11111222,11111222,11144222' 
TCOON,ioos:station:TCOON:518:1,2008-06-08T13:00:00Z,29.5150,-94.5133,0.0,6.3,153.0,99.0,'11111222,11111222,11144222' 
TCOON,ioos:station:TCOON:518:1,2008-06-08T14:00:00Z,29.5150,-94.5133,0.0,5.7,151.0,99.0,'11111222,11111222,11144222' 
TCOON,ioos:station:TCOON:518:1,2008-06-08T15:00:00Z,29.5150,-94.5133,0.0,5.4,161.0,99.0,'11111222,11111222,11144222' 
TCOON,ioos:station:TCOON:518:1,2008-06-08T16:00:00Z,29.5150,-94.5133,0.0,5.6,144.0,99.0,'11111222,11111222,11144222' 
TCOON,ioos:station:TCOON:518:1,2008-06-08T17:00:00Z,29.5150,-94.5133,0.0,6.6,146.0,99.0,'11111222,11111222,11144222' 
TCOON,ioos:station:TCOON:518:1,2008-06-08T18:00:00Z,29.5150,-94.5133,0.0,6.3,150.0,99.0,'11111222,11111222,11144222' 
TCOON,ioos:station:TCOON:518:1,2008-06-08T19:00:00Z,29.5150,-94.5133,0.0,5.7,146.0,99.0,'11111222,11111222,11144222' 
TCOON,ioos:station:TCOON:518:1,2008-06-08T20:00:00Z,29.5150,-94.5133,0.0,7.6,146.0,99.0,'11111222,11111222,11144222' 
TCOON,ioos:station:TCOON:518:1,2008-06-08T21:00:00Z,29.5150,-94.5133,0.0,7.3,147.0,99.0,'11111222,11111222,11144222' 
TCOON,ioos:station:TCOON:518:1,2008-06-08T22:00:00Z,29.5150,-94.5133,0.0,6.6,142.0,99.0,'11111222,11111222,11144222' 
TCOON,ioos:station:TCOON:518:1,2008-06-08T23:00:00Z,29.5150,-94.5133,0.0,6.4,145.0,99.0,'11111222,11111222,11144222' 
TCOON,ioos:station:TCOON:518:1,2008-06-09T00:00:00Z,29.5150,-94.5133,0.0,7.0,140.0,99.0,'11111222,11111222,11144222' 
TCOON,ioos:station:TCOON:518:1,2008-06-09T01:00:00Z,29.5150,-94.5133,0.0,5.9,142.0,99.0,'11111222,11111222,11144222' 
TCOON,ioos:station:TCOON:518:1,2008-06-09T02:00:00Z,29.5150,-94.5133,0.0,6.4,143.0,99.0,'11111222,11111222,11144222' 
TCOON,ioos:station:TCOON:518:1,2008-06-09T03:00:00Z,29.5150,-94.5133,0.0,7.5,138.0,99.0,'11111222,11111222,11144222' 
TCOON,ioos:station:TCOON:518:1,2008-06-09T04:00:00Z,29.5150,-94.5133,0.0,7.4,147.0,99.0,'11111222,11111222,11144222' 
TCOON,ioos:station:TCOON:518:1,2008-06-09T05:00:00Z,29.5150,-94.5133,0.0,8.0,152.0,99.0,'11111222,11111222,11144222' 
TCOON,ioos:station:TCOON:518:1,2008-06-09T06:00:00Z,29.5150,-94.5133,0.0,7.4,153.0,99.0,'11111222,11111222,11144222' 
TCOON,ioos:station:TCOON:518:1,2008-06-09T07:00:00Z,29.5150,-94.5133,0.0,5.8,154.0,99.0,'11111222,11111222,11144222' 
TCOON,ioos:station:TCOON:518:1,2008-06-09T08:00:00Z,29.5150,-94.5133,0.0,4.4,165.0,99.0,'11111222,11111222,11144222' 
TCOON,ioos:station:TCOON:518:1,2008-06-09T09:00:00Z,29.5150,-94.5133,0.0,4.8,167.0,99.0,'11111222,11111222,11144222' 